AFR24 LFPO-LEMD

Flight info

Callsign AFR24
Flight time N/A
Altitude 31000
Route AGOPA DCT ARKIP DCT ARMAL DCT ARTAX DCT BEBIX DCT LMG DCT UVELI DCT OSMOB DCT VAVIX DCT NETUK N857 BANEV
Aircraft A320/M-SDE3FGHIRWY/LB1

Departure

Time 2026-05-07 23:38
Airport Paris-Orly Airport (LFPO)

Arrival

Time N/A
Airport Adolfo Suárez Madrid–Barajas Airport (LEMD)
Time Latitude Longitude Altitude Speed Heading
2026-05-07 23:17 48.72740 2.37046 294 ft 0 kts 343°
2026-05-07 23:29 48.72731 2.37050 297 ft 3 kts 341°
2026-05-07 23:30 48.72712 2.37061 297 ft 3 kts 330°
2026-05-07 23:30 48.72696 2.37078 297 ft 3 kts 310°
2026-05-07 23:30 48.72687 2.37102 295 ft 3 kts 267°
2026-05-07 23:30 48.72688 2.37116 294 ft 1 kts 254°
2026-05-07 23:31 48.72688 2.37118 298 ft 0 kts 254°
2026-05-07 23:33 48.72678 2.37066 297 ft 12 kts 254°
2026-05-07 23:33 48.72656 2.36945 296 ft 11 kts 254°
2026-05-07 23:33 48.72633 2.36835 298 ft 11 kts 252°
2026-05-07 23:33 48.72605 2.36719 294 ft 11 kts 247°
2026-05-07 23:34 48.72576 2.36612 295 ft 11 kts 251°
2026-05-07 23:34 48.72558 2.36509 296 ft 10 kts 255°
2026-05-07 23:34 48.72540 2.36412 296 ft 11 kts 255°
2026-05-07 23:34 48.72520 2.36297 294 ft 11 kts 255°
2026-05-07 23:35 48.72500 2.36189 297 ft 10 kts 254°
2026-05-07 23:35 48.72481 2.36082 296 ft 11 kts 255°
2026-05-07 23:35 48.72469 2.35971 294 ft 10 kts 266°
2026-05-07 23:35 48.72474 2.35867 294 ft 10 kts 277°
2026-05-07 23:36 48.72476 2.35748 294 ft 13 kts 260°
2026-05-07 23:36 48.72443 2.35632 296 ft 12 kts 221°
2026-05-07 23:36 48.72371 2.35636 294 ft 10 kts 166°
2026-05-07 23:36 48.72276 2.35609 298 ft 16 kts 196°
2026-05-07 23:37 48.72160 2.35628 294 ft 18 kts 166°
2026-05-07 23:37 48.72043 2.35721 296 ft 21 kts 129°
2026-05-07 23:37 48.71973 2.35924 295 ft 23 kts 102°
2026-05-07 23:37 48.72004 2.36195 298 ft 41 kts 74°
2026-05-07 23:38 48.72159 2.37032 297 ft 120 kts 74°
2026-05-07 23:38 48.72435 2.38547 331 ft 173 kts 75°
2026-05-07 23:38 48.72761 2.40303 1157 ft 172 kts 74°
2026-05-07 23:38 48.73091 2.42039 1996 ft 175 kts 75°
2026-05-07 23:39 48.73443 2.43908 2524 ft 200 kts 74°
2026-05-07 23:39 48.73828 2.46081 3080 ft 226 kts 75°
2026-05-07 23:39 48.74155 2.48543 3772 ft 250 kts 83°
2026-05-07 23:39 48.74293 2.51176 4578 ft 266 kts 86°
2026-05-07 23:40 48.74361 2.53990 5721 ft 269 kts 88°
2026-05-07 23:40 48.74225 2.56811 6854 ft 273 kts 106°
2026-05-07 23:40 48.73183 2.59237 7684 ft 282 kts 142°
2026-05-07 23:40 48.71419 2.60602 8674 ft 287 kts 164°
2026-05-07 23:41 48.69484 2.61350 9910 ft 286 kts 171°
2026-05-07 23:41 48.67491 2.61746 10694 ft 298 kts 185°
2026-05-07 23:41 48.65399 2.61090 11236 ft 315 kts 201°
2026-05-07 23:41 48.63388 2.59689 12077 ft 321 kts 211°
2026-05-07 23:42 48.61556 2.57723 12978 ft 326 kts 222°
2026-05-07 23:42 48.60011 2.55234 13899 ft 332 kts 228°
2026-05-07 23:42 48.58500 2.52581 14692 ft 336 kts 229°
2026-05-07 23:42 48.56988 2.49864 15498 ft 339 kts 229°
2026-05-07 23:43 48.55469 2.47109 16308 ft 343 kts 230°
2026-05-07 23:43 48.53939 2.44322 17130 ft 346 kts 230°
2026-05-07 23:43 48.52393 2.41507 17952 ft 350 kts 229°
2026-05-07 23:43 48.50830 2.38667 18692 ft 354 kts 229°
2026-05-07 23:44 48.49250 2.35803 19387 ft 357 kts 229°
2026-05-07 23:44 48.47652 2.32916 20078 ft 360 kts 229°
2026-05-07 23:44 48.46040 2.30006 20766 ft 363 kts 229°
2026-05-07 23:44 48.44415 2.27072 21470 ft 366 kts 229°
2026-05-07 23:45 48.42775 2.24119 22135 ft 369 kts 229°
2026-05-07 23:45 48.41119 2.21147 22792 ft 372 kts 229°
2026-05-07 23:45 48.39468 2.18186 23427 ft 376 kts 229°
2026-05-07 23:45 48.37783 2.15166 23990 ft 379 kts 229°
2026-05-07 23:46 48.36082 2.12124 24515 ft 381 kts 229°
2026-05-07 23:46 48.34366 2.09057 25050 ft 384 kts 229°
2026-05-07 23:46 48.32591 2.06049 25558 ft 386 kts 223°
2026-05-07 23:46 48.30473 2.03554 26058 ft 389 kts 212°
2026-05-07 23:47 48.28036 2.01764 26551 ft 392 kts 200°
2026-05-07 23:47 48.25382 2.00757 27030 ft 396 kts 189°
2026-05-07 23:47 48.22615 2.00560 27499 ft 400 kts 180°
2026-05-07 23:47 48.19822 2.00649 27978 ft 403 kts 180°
2026-05-07 23:48 48.17045 2.00732 28442 ft 406 kts 180°
2026-05-07 23:48 48.14209 2.00813 28899 ft 409 kts 181°
2026-05-07 23:48 48.11356 2.00892 29357 ft 412 kts 181°